Powrót do katalogu

STARLINK-35464

AktywnyŁącznośćVLEO
NORAD 65881·PAYLOAD·🇺🇸 United States

Wystrzelony Oct 3, 2025 z Vandenberg Space Force Base

Loading…

Następne Przeloty (najbliższe 24 godziny)

TLE

ŚwieżeSource: CelesTrak SupGP

Epoka: Sep 14, 2026, 21:35 UTC

1 65881C 25223AD  26257.89979167 -.00073285  00000+0 -21639-2 0  2576
2 65881  53.1564 131.5871 0001247  90.6744  33.4437 15.34446577    15

Śledź STARLINK-35464 w czasie rzeczywistym z AllMySat

Download on the App Store